Tiempo cada hora Bartlesville

Hoy, 1 Marzo, Lunes

Tiempo Temperatura Precipitaciones Viento Presión Humedad
00:00 +2°C° 0 mm 5 mps 747 mmHg 73%
01:00 +2°C° 0 mm 5 mps 747 mmHg 75%
02:00 +1°C° 0 mm 4 mps 747 mmHg 78%
03:00 +1°C° 0 mm 4 mps 747 mmHg 80%
04:00 +1°C° 0 mm 3 mps 748 mmHg 82%
05:00 +1°C° 0 mm 3 mps 749 mmHg 84%
06:00 +1°C° 0 mm 2 mps 749 mmHg 86%
07:00 +2°C° 0 mm 2 mps 750 mmHg 80%
08:00 +3°C° 0 mm 2 mps 750 mmHg 73%
09:00 +3°C° 0 mm 3 mps 751 mmHg 67%
10:00 +6°C° 0 mm 2 mps 751 mmHg 59%
11:00 +7°C° 0 mm 2 mps 751 mmHg 51%
12:00 +9°C° 0 mm 2 mps 751 mmHg 43%
13:00 +10°C° 0 mm 2 mps 751 mmHg 40%
14:00 +12°C° 0 mm 2 mps 750 mmHg 36%
15:00 +13°C° 0 mm 2 mps 750 mmHg 33%
16:00 +12°C° 0 mm 2 mps 750 mmHg 37%
17:00 +12°C° 0 mm 2 mps 750 mmHg 40%
18:00 +11°C° 0 mm 1 mps 749 mmHg 44%
19:00 +10°C° 0 mm 1 mps 750 mmHg 47%
20:00 +9°C° 0 mm 1 mps 750 mmHg 49%
21:00 +8°C° 0 mm 1 mps 750 mmHg 52%
22:00 +7°C° 0 mm 1 mps 750 mmHg 53%
23:00 +7°C° 0 mm 1 mps 750 mmHg 55%

Mañana, 2 Marzo, Martes

Tiempo Temperatura Precipitaciones Viento Presión Humedad
00:00 +5°C° 0 mm 0 mps 750 mmHg 56%
01:00 +6°C° 0 mm 1 mps 750 mmHg 56%
02:00 +6°C° 0 mm 1 mps 749 mmHg 56%
03:00 +5°C° 0 mm 2 mps 749 mmHg 57%
04:00 +5°C° 0 mm 2 mps 749 mmHg 60%
05:00 +4°C° 0 mm 2 mps 749 mmHg 64%
06:00 +3°C° 0 mm 3 mps 749 mmHg 68%
07:00 +4°C° 0 mm 3 mps 749 mmHg 68%
08:00 +5°C° 0 mm 4 mps 749 mmHg 68%
09:00 +6°C° 0 mm 4 mps 748 mmHg 68%
10:00 +8°C° 0 mm 4 mps 748 mmHg 61%
11:00 +10°C° 0 mm 4 mps 748 mmHg 54%
12:00 +12°C° 0 mm 5 mps 747 mmHg 47%
13:00 +12°C° 0 mm 4 mps 746 mmHg 45%
14:00 +13°C° 0 mm 4 mps 745 mmHg 43%
15:00 +14°C° 0 mm 4 mps 745 mmHg 41%
16:00 +13°C° 0 mm 4 mps 744 mmHg 44%
17:00 +12°C° 0 mm 3 mps 744 mmHg 48%
18:00 +12°C° 0 mm 2 mps 744 mmHg 52%
19:00 +10°C° 0 mm 3 mps 744 mmHg 54%
20:00 +9°C° 0 mm 3 mps 744 mmHg 56%
21:00 +8°C° 0 mm 3 mps 744 mmHg 59%
22:00 +7°C° 0 mm 3 mps 744 mmHg 64%
23:00 +6°C° 0 mm 4 mps 744 mmHg 69%

Pasado mañana, 3 Marzo, Miércoles

Tiempo Temperatura Precipitaciones Viento Presión Humedad
00:00 +5°C° 0 mm 4 mps 744 mmHg 74%
01:00 +5°C° 0 mm 4 mps 744 mmHg 77%
02:00 +4°C° 0 mm 3 mps 744 mmHg 79%
03:00 +4°C° 0 mm 3 mps 744 mmHg 81%
04:00 +4°C° 0 mm 3 mps 744 mmHg 82%
05:00 +3°C° 0 mm 3 mps 744 mmHg 82%
06:00 +3°C° 0 mm 3 mps 744 mmHg 82%
07:00 +4°C° 0 mm 3 mps 744 mmHg 78%
08:00 +6°C° 0 mm 4 mps 745 mmHg 73%
09:00 +7°C° 0 mm 4 mps 745 mmHg 68%
10:00 +10°C° 0 mm 4 mps 745 mmHg 61%
11:00 +12°C° 0 mm 4 mps 745 mmHg 53%
12:00 +16°C° 0 mm 3 mps 745 mmHg 45%
13:00 +17°C° 0 mm 3 mps 744 mmHg 43%
14:00 +18°C° 0 mm 3 mps 744 mmHg 40%
15:00 +19°C° 0 mm 3 mps 743 mmHg 38%
16:00 +18°C° 0 mm 3 mps 743 mmHg 42%
17:00 +17°C° 0 mm 2 mps 743 mmHg 47%
18:00 +15°C° 0 mm 2 mps 743 mmHg 52%
19:00 +14°C° 0 mm 2 mps 744 mmHg 56%
20:00 +13°C° 0 mm 2 mps 744 mmHg 60%
21:00 +12°C° 0 mm 2 mps 745 mmHg 65%
22:00 +10°C° 0 mm 2 mps 745 mmHg 67%
23:00 +10°C° 0 mm 2 mps 745 mmHg 69%

4 Marzo, Jueves

Tiempo Temperatura Precipitaciones Viento Presión Humedad
00:00 +9°C° 0 mm 2 mps 746 mmHg 71%
01:00 +9°C° 0 mm 2 mps 746 mmHg 73%
02:00 +8°C° 0 mm 2 mps 746 mmHg 75%
03:00 +9°C° 0 mm 1 mps 746 mmHg 78%
04:00 +9°C° 0 mm 1 mps 746 mmHg 79%
05:00 +8°C° 0 mm 1 mps 746 mmHg 81%
06:00 +8°C° 0 mm 1 mps 747 mmHg 82%
07:00 +9°C° 0 mm 1 mps 747 mmHg 77%
08:00 +10°C° 0 mm 1 mps 747 mmHg 73%
09:00 +12°C° 0 mm 1 mps 747 mmHg 68%
10:00 +13°C° 0 mm 2 mps 747 mmHg 62%
11:00 +15°C° 0 mm 2 mps 747 mmHg 56%
12:00 +17°C° 0 mm 3 mps 747 mmHg 50%
13:00 +18°C° 0 mm 3 mps 746 mmHg 47%
14:00 +18°C° 0 mm 3 mps 745 mmHg 45%
15:00 +19°C° 0 mm 4 mps 745 mmHg 43%
16:00 +18°C° 0 mm 3 mps 744 mmHg 47%
17:00 +17°C° 0 mm 3 mps 744 mmHg 51%
18:00 +16°C° 0 mm 3 mps 744 mmHg 56%
19:00 +14°C° 0 mm 3 mps 744 mmHg 59%
20:00 +13°C° 0 mm 3 mps 744 mmHg 62%
21:00 +12°C° 0 mm 3 mps 744 mmHg 65%
22:00 +11°C° 0 mm 3 mps 744 mmHg 66%
23:00 +11°C° 0 mm 3 mps 744 mmHg 68%

5 Marzo, Viernes

Tiempo Temperatura Precipitaciones Viento Presión Humedad
00:00 +10°C° 0 mm 3 mps 744 mmHg 70%
01:00 +10°C° 0 mm 4 mps 744 mmHg 73%
02:00 +10°C° 0 mm 4 mps 744 mmHg 75%
03:00 +9°C° 0 mm 5 mps 743 mmHg 78%
04:00 +9°C° 0.2 mm 5 mps 744 mmHg 80%
05:00 +9°C° 0.2 mm 5 mps 744 mmHg 83%
06:00 +9°C° 0.2 mm 5 mps 744 mmHg 85%
07:00 +9°C° 0.2 mm 6 mps 745 mmHg 82%
08:00 +9°C° 0.2 mm 6 mps 745 mmHg 79%
09:00 +9°C° 0.2 mm 6 mps 745 mmHg 76%
10:00 +9°C° 1.2 mm 6 mps 746 mmHg 78%
11:00 +9°C° 1.2 mm 5 mps 746 mmHg 81%
12:00 +10°C° 1.2 mm 4 mps 747 mmHg 84%
13:00 +10°C° 1.4 mm 4 mps 747 mmHg 85%
14:00 +10°C° 1.4 mm 4 mps 747 mmHg 86%
15:00 +8°C° 1.4 mm 4 mps 748 mmHg 87%
16:00 +8°C° 0.4 mm 4 mps 748 mmHg 86%
17:00 +8°C° 0.4 mm 4 mps 748 mmHg 86%
18:00 +8°C° 0.4 mm 4 mps 749 mmHg 85%
19:00 +9°C° 0 mm 3 mps 749 mmHg 86%
20:00 +8°C° 0 mm 3 mps 750 mmHg 86%
21:00 +8°C° 0 mm 2 mps 750 mmHg 87%
22:00 +8°C° 0 mm 2 mps 751 mmHg 87%
23:00 +8°C° 0 mm 1 mps 751 mmHg 88%

6 Marzo, Sábado

Tiempo Temperatura Precipitaciones Viento Presión Humedad
00:00 +8°C° 0 mm 1 mps 751 mmHg 89%
01:00 +7°C° 0 mm 1 mps 751 mmHg 88%
02:00 +6°C° 0 mm 0 mps 751 mmHg 88%
03:00 +5°C° 0 mm 0 mps 751 mmHg 88%
04:00 +5°C° 0 mm 0 mps 751 mmHg 88%
05:00 +5°C° 0 mm 0 mps 751 mmHg 89%
06:00 +6°C° 0 mm 1 mps 751 mmHg 89%
07:00 +7°C° 0 mm 1 mps 752 mmHg 85%
08:00 +8°C° 0 mm 1 mps 752 mmHg 80%
09:00 +9°C° 0 mm 1 mps 752 mmHg 76%
10:00 +9°C° 0 mm 2 mps 752 mmHg 70%
11:00 +12°C° 0 mm 2 mps 752 mmHg 63%
12:00 +12°C° 0 mm 3 mps 752 mmHg 56%
13:00 +13°C° 0 mm 3 mps 751 mmHg 54%
14:00 +13°C° 0 mm 3 mps 750 mmHg 51%
15:00 +14°C° 0 mm 3 mps 750 mmHg 48%
16:00 +13°C° 0 mm 3 mps 750 mmHg 52%
17:00 +12°C° 0 mm 3 mps 749 mmHg 56%
18:00 +13°C° 0 mm 2 mps 749 mmHg 60%
19:00 +12°C° 0 mm 2 mps 749 mmHg 63%
20:00 +10°C° 0 mm 2 mps 750 mmHg 66%
21:00 +9°C° 0 mm 2 mps 750 mmHg 69%
22:00 +8°C° 0 mm 3 mps 750 mmHg 69%
23:00 +8°C° 0 mm 3 mps 750 mmHg 70%
Mostrar más

Necesitamos Su Consentimiento

Meteoprog y nuestros Proveedores de Servicios pueden almacenar y acceder a sus datos personales como cookies, identificadores de dispositivo u otras tecnologías similares de su dispositivo y procesar dichos datos para personalizar contenido y anuncios, además de ofrecer funciones de redes sociales y analizar el tráfico.

  • Almacenar y/o acceder a información en su dispositivo

    Se puede almacenar o acceder a cookies, identificadores de dispositivo u otra información de su dispositivo para los fines anteriormente indicados.

  • Anuncios y contenido personalizados, medición de anuncios y contenido, percepciones del público, y desarrollo de productos

    Los anuncios y el contenido pueden personalizarse en base a su perfil. Se pueden añadir más datos para personalizar mejor los anuncios y contenidos. Se puede medir el rendimiento de los anuncios y contenidos. Se puede obtener la percepción sobre el público que ha visto los anuncios y contenidos. Dichos datos pueden usarse para desarrollar o mejorar la experiencia del usuario, sistemas y software.

Al hacer clic en ‘Estoy De Acuerdo’ usted permitirá el uso de las cookies, identificadores de dispositivo, balizas web u otras tecnologías similares indicadas. Su configuración puede cambiarse desde el navegador de su dispositivo.

Para ciertos fines, los intereses legítimos pueden ser considerados por encima del consentimiento. Puede leer más sobre ello en nuestra Política de Privacidad y Cookies.